Retour au catalogue

NIMBUS 3

ActifMétéoSSO
NORAD 3890·PAYLOAD·🇺🇸 United States

Lancé Apr 14, 1969 depuis Vandenberg Space Force Base

Loading…

Prochains Passages (prochaines 24 heures)

TLE

FraisSource: Space-Track

Époque: Sep 14, 2026, 14:43 UTC

1 03890U 69037A   26257.61341507 -.00000032  00000-0  17573-4 0  9997
2 03890  99.6886 134.8909 0040171 102.2334 275.3877 13.42675011812785

Suivez NIMBUS 3 en temps réel avec AllMySat

Download on the App Store